When you browse on this site, cookies collect data to enhance your experience and personalize the content and advertising you see.
Visit our Privacy Policy to learn more. By continuing to use the site, you agree to this use of cookies and data.
  • In Portugal
  • List of Countries
  • For 7 days
  • Water Temperature
  • Satellite Maps
  • Weather Map
  • Weather Widgets
  • user-avatar
    Login

    Hourly Weather Borhov

    Today, 24 April, Wednesday

    Time Temperature Precipitation Wind Pressure Humidity
    00:00 +12°C° 0 mm 1 mps 757 mmHg 55%
    01:00 +11°C° 0 mm 1 mps 757 mmHg 57%
    02:00 +10°C° 0 mm 0 mps 757 mmHg 53%
    03:00 +9°C° 0 mm 0 mps 757 mmHg 53%
    04:00 +9°C° 0 mm 0 mps 757 mmHg 54%
    05:00 +9°C° 0 mm 0 mps 757 mmHg 55%
    06:00 +12°C° 0 mm 1 mps 758 mmHg 51%
    07:00 +14°C° 0 mm 1 mps 758 mmHg 48%
    08:00 +16°C° 0 mm 1 mps 758 mmHg 44%
    09:00 +17°C° 0 mm 2 mps 758 mmHg 40%
    10:00 +19°C° 0 mm 2 mps 758 mmHg 35%
    11:00 +20°C° 0 mm 2 mps 758 mmHg 30%
    12:00 +21°C° 0 mm 2 mps 758 mmHg 29%
    13:00 +21°C° 0 mm 2 mps 757 mmHg 28%
    14:00 +23°C° 0 mm 2 mps 757 mmHg 27%
    15:00 +21°C° 0 mm 2 mps 757 mmHg 28%
    16:00 +21°C° 0 mm 2 mps 756 mmHg 30%
    17:00 +21°C° 0 mm 2 mps 756 mmHg 31%
    18:00 +19°C° 0 mm 2 mps 756 mmHg 36%
    19:00 +17°C° 0 mm 2 mps 756 mmHg 40%
    20:00 +15°C° 0 mm 2 mps 756 mmHg 44%
    21:00 +14°C° 0 mm 2 mps 756 mmHg 45%
    22:00 +14°C° 0 mm 2 mps 756 mmHg 47%
    23:00 +13°C° 0 mm 2 mps 756 mmHg 48%

    Tomorrow, 25 April, Thursday

    Time Temperature Precipitation Wind Pressure Humidity
    00:00 +12°C° 0 mm 1 mps 757 mmHg 49%
    01:00 +12°C° 0 mm 1 mps 757 mmHg 51%
    02:00 +11°C° 0 mm 1 mps 757 mmHg 52%
    03:00 +11°C° 0 mm 1 mps 757 mmHg 54%
    04:00 +11°C° 0 mm 1 mps 757 mmHg 55%
    05:00 +10°C° 0 mm 1 mps 756 mmHg 57%
    06:00 +12°C° 0 mm 1 mps 756 mmHg 53%
    07:00 +14°C° 0 mm 2 mps 756 mmHg 50%
    08:00 +16°C° 0 mm 2 mps 756 mmHg 46%
    09:00 +18°C° 0 mm 3 mps 756 mmHg 42%
    10:00 +19°C° 0 mm 4 mps 756 mmHg 37%
    11:00 +21°C° 0 mm 5 mps 756 mmHg 33%
    12:00 +21°C° 0 mm 5 mps 756 mmHg 32%
    13:00 +22°C° 0 mm 5 mps 755 mmHg 31%
    14:00 +22°C° 0 mm 5 mps 755 mmHg 30%
    15:00 +22°C° 0 mm 4 mps 754 mmHg 32%
    16:00 +21°C° 0 mm 4 mps 754 mmHg 34%
    17:00 +21°C° 0 mm 4 mps 754 mmHg 36%
    18:00 +19°C° 0 mm 3 mps 754 mmHg 41%
    19:00 +17°C° 0 mm 3 mps 754 mmHg 46%
    20:00 +14°C° 0 mm 3 mps 754 mmHg 51%
    21:00 +13°C° 0 mm 3 mps 754 mmHg 53%
    22:00 +13°C° 0 mm 3 mps 754 mmHg 56%
    23:00 +12°C° 0 mm 3 mps 754 mmHg 58%

    Day after tomorrow, 26 April, Friday

    Time Temperature Precipitation Wind Pressure Humidity
    00:00 +12°C° 0 mm 2 mps 754 mmHg 60%
    01:00 +12°C° 0 mm 2 mps 753 mmHg 62%
    02:00 +12°C° 0 mm 2 mps 753 mmHg 63%
    03:00 +10°C° 0 mm 2 mps 753 mmHg 65%
    04:00 +10°C° 0 mm 2 mps 753 mmHg 67%
    05:00 +10°C° 0 mm 2 mps 753 mmHg 69%
    06:00 +11°C° 0 mm 3 mps 753 mmHg 65%
    07:00 +13°C° 0 mm 3 mps 752 mmHg 61%
    08:00 +15°C° 0 mm 4 mps 752 mmHg 56%
    09:00 +17°C° 0 mm 4 mps 752 mmHg 50%
    10:00 +19°C° 0 mm 5 mps 752 mmHg 44%
    11:00 +21°C° 0 mm 6 mps 752 mmHg 38%
    12:00 +21°C° 0 mm 6 mps 751 mmHg 37%
    13:00 +22°C° 0 mm 6 mps 751 mmHg 36%
    14:00 +22°C° 0 mm 6 mps 750 mmHg 35%
    15:00 +22°C° 0 mm 6 mps 750 mmHg 36%
    16:00 +22°C° 0 mm 5 mps 749 mmHg 38%
    17:00 +21°C° 0 mm 5 mps 749 mmHg 40%
    18:00 +19°C° 0 mm 4 mps 749 mmHg 44%
    19:00 +17°C° 0 mm 4 mps 749 mmHg 49%
    20:00 +16°C° 0 mm 3 mps 749 mmHg 53%
    21:00 +14°C° 0 mm 3 mps 749 mmHg 54%
    22:00 +13°C° 0 mm 3 mps 748 mmHg 54%
    23:00 +12°C° 0 mm 3 mps 748 mmHg 55%

    27 April, Saturday

    Time Temperature Precipitation Wind Pressure Humidity
    00:00 +12°C° 0 mm 3 mps 748 mmHg 56%
    01:00 +12°C° 0 mm 3 mps 748 mmHg 57%
    02:00 +11°C° 0 mm 4 mps 747 mmHg 58%
    03:00 +11°C° 0 mm 4 mps 747 mmHg 60%
    04:00 +11°C° 0 mm 4 mps 747 mmHg 61%
    05:00 +11°C° 0 mm 4 mps 746 mmHg 62%
    06:00 +12°C° 0 mm 4 mps 746 mmHg 64%
    07:00 +12°C° 0 mm 4 mps 746 mmHg 66%
    08:00 +13°C° 0 mm 4 mps 745 mmHg 68%
    09:00 +14°C° 0 mm 4 mps 745 mmHg 66%
    10:00 +15°C° 0 mm 5 mps 745 mmHg 64%
    11:00 +16°C° 0 mm 5 mps 745 mmHg 61%
    12:00 +19°C° 0.1 mm 5 mps 744 mmHg 59%
    13:00 +20°C° 0.1 mm 5 mps 744 mmHg 57%
    14:00 +21°C° 0.1 mm 6 mps 744 mmHg 55%
    15:00 +21°C° 0.1 mm 5 mps 743 mmHg 56%
    16:00 +21°C° 0.1 mm 4 mps 743 mmHg 57%
    17:00 +21°C° 0.1 mm 4 mps 742 mmHg 58%
    18:00 +19°C° 0.6 mm 3 mps 742 mmHg 66%
    19:00 +18°C° 0.6 mm 3 mps 742 mmHg 75%
    20:00 +16°C° 0.6 mm 2 mps 742 mmHg 83%
    21:00 +15°C° 0.3 mm 2 mps 742 mmHg 86%
    22:00 +15°C° 0.3 mm 2 mps 741 mmHg 89%
    23:00 +15°C° 0.3 mm 2 mps 741 mmHg 92%

    28 April, Sunday

    Time Temperature Precipitation Wind Pressure Humidity
    00:00 +15°C° 0.1 mm 2 mps 741 mmHg 93%
    01:00 +15°C° 0.1 mm 2 mps 741 mmHg 93%
    02:00 +15°C° 0.1 mm 2 mps 741 mmHg 94%
    03:00 +14°C° 0.4 mm 2 mps 741 mmHg 94%
    04:00 +14°C° 0.4 mm 2 mps 741 mmHg 95%
    05:00 +14°C° 0.4 mm 2 mps 741 mmHg 96%
    06:00 +15°C° 0 mm 2 mps 742 mmHg 90%
    07:00 +16°C° 0 mm 2 mps 742 mmHg 85%
    08:00 +17°C° 0 mm 2 mps 742 mmHg 80%
    09:00 +19°C° 0.1 mm 3 mps 742 mmHg 73%
    10:00 +20°C° 0.1 mm 3 mps 742 mmHg 67%
    11:00 +22°C° 0.1 mm 4 mps 743 mmHg 60%
    12:00 +22°C° 0.6 mm 4 mps 743 mmHg 59%
    13:00 +22°C° 0.6 mm 4 mps 743 mmHg 59%
    14:00 +22°C° 0.6 mm 5 mps 743 mmHg 58%
    15:00 +21°C° 0.4 mm 5 mps 744 mmHg 60%
    16:00 +20°C° 0.4 mm 6 mps 744 mmHg 62%
    17:00 +19°C° 0.4 mm 6 mps 744 mmHg 65%
    18:00 +16°C° 0 mm 6 mps 745 mmHg 68%
    19:00 +14°C° 0 mm 6 mps 745 mmHg 71%
    20:00 +11°C° 0 mm 6 mps 746 mmHg 74%
    21:00 +10°C° 0 mm 6 mps 747 mmHg 73%
    22:00 +9°C° 0 mm 6 mps 747 mmHg 73%
    23:00 +8°C° 0 mm 6 mps 748 mmHg 73%

    29 April, Monday

    Time Temperature Precipitation Wind Pressure Humidity
    00:00 +8°C° 0 mm 6 mps 748 mmHg 71%
    01:00 +7°C° 0 mm 6 mps 749 mmHg 68%
    02:00 +5°C° 0 mm 6 mps 749 mmHg 66%
    03:00 +4°C° 0 mm 6 mps 750 mmHg 66%
    04:00 +4°C° 0 mm 6 mps 750 mmHg 65%
    05:00 +3°C° 0 mm 6 mps 750 mmHg 64%
    06:00 +4°C° 0 mm 6 mps 751 mmHg 61%
    07:00 +4°C° 0 mm 6 mps 751 mmHg 58%
    08:00 +5°C° 0 mm 7 mps 751 mmHg 56%
    09:00 +6°C° 0 mm 7 mps 751 mmHg 52%
    10:00 +8°C° 0 mm 7 mps 752 mmHg 47%
    11:00 +10°C° 0 mm 7 mps 752 mmHg 43%
    12:00 +10°C° 0 mm 6 mps 752 mmHg 43%
    13:00 +11°C° 0 mm 6 mps 752 mmHg 42%
    14:00 +11°C° 0 mm 6 mps 751 mmHg 41%
    15:00 +11°C° 0 mm 6 mps 751 mmHg 42%
    16:00 +11°C° 0 mm 6 mps 751 mmHg 44%
    17:00 +12°C° 0 mm 5 mps 751 mmHg 45%
    18:00 +9°C° 0 mm 5 mps 752 mmHg 49%
    19:00 +8°C° 0 mm 4 mps 752 mmHg 53%
    20:00 +6°C° 0 mm 4 mps 753 mmHg 57%
    21:00 +6°C° 0 mm 4 mps 753 mmHg 58%
    22:00 +5°C° 0 mm 4 mps 753 mmHg 59%
    23:00 +4°C° 0 mm 4 mps 754 mmHg 60%
    Show more